Weather observations for the past three days for
Denver, Denver International Airport
Imperial (Metric)
Date Time (mdt) Wind (mph) Vis. (mi.) Weather Sky Cond. Temperature (ºF) Relative Humidity Wind Chill (°F) Heat Index (°F) Pressure Precipitation (in)
Air Dwpt 6 hour altimeter (in) sea level (mb) 1 hr 3 hr 6 hr
Max. Min.
25 03:53 SW 12 10.00 A Few Clouds FEW180 69.1 44.1 41% 30.03 1007.2
25 02:53 SW 14 10.00 Partly Cloudy SCT180 71.1 44.1 38% 30.03 1006.9
25 01:53 SW 10 10.00 Partly Cloudy SCT150 SCT220 72 44.1 37% 30.03 1006.8
25 00:53 SW 14 10.00 Partly Cloudy FEW150 SCT220 71.1 45 39% 30.05 1007.5
24 23:53 SW 12 10.00 A Few Clouds FEW140 FEW220 72 45 91 66 38% 30.05 1007.7
24 22:53 S 9 10.00 A Few Clouds FEW140 66 44.1 45% 30.06 1008.6
24 21:53 SW 8 10.00 A Few Clouds FEW140 73.9 43 33% 30.06 1008.0
24 20:53 N 8 10.00 Mostly Cloudy FEW110 SCT140 BKN220 73.9 44.1 34% 30.06 1008.4
24 19:53 NW 23 G 33 10.00 Mostly Cloudy and Breezy SCT110 BKN140 BKN200 79 44.1 29% 79 30.1 1009.9
24 18:53 E 8 10.00 Mostly Cloudy FEW100 BKN140 BKN200 88 39.9 18% 84 30.03 1007.3
24 17:53 N 14 G 28 10.00 Mostly Cloudy FEW085 SCT110 BKN140 BKN200 86 42.1 98.1 86 21% 83 30.02 1007.2
24 16:53 NE 20 G 26 10.00 Mostly Cloudy SCT100 BKN150 BKN200 90 39 17% 86 30.01 1007.0
24 15:53 NE 15 G 21 10.00 Mostly Cloudy SCT100 BKN150 BKN200 93.9 37.9 14% 89 30 1006.1
24 14:53 E 5 10.00 Mostly Cloudy SCT090 BKN140 BKN220 95 34 12% 90 30.01 1006.3
24 13:53 SW 9 10.00 Mostly Cloudy SCT090 BKN150 BKN220 96.1 35.1 12% 91 30.02 1006.6
24 12:53 N 9 G 22 10.00 Mostly Cloudy SCT090 BKN140 BKN220 93.9 37 14% 89 30.03 1007.3
24 11:53 N 9 G 20 10.00 Mostly Cloudy SCT090 SCT140 BKN220 96.1 37 96.1 69.1 13% 91 30.04 1006.9
24 10:53 NE 6 10.00 Partly Cloudy FEW090 SCT140 SCT220 93 39.9 16% 89 30.05 1007.3
24 09:53 W 10 10.00 Partly Cloudy FEW120 FEW150 SCT220 91 42.1 18% 87 30.06 1007.8
24 08:53 W 12 10.00 Partly Cloudy FEW120 FEW150 SCT220 87.1 43 21% 84 30.07 1007.7
24 07:53 SW 12 10.00 Partly Cloudy FEW140 SCT220 79 43 28% 78 30.07 1008.0
24 06:53 SW 12 10.00 Partly Cloudy FEW120 FEW150 SCT220 73 42.1 33% 30.06 1008.2
24 05:53 SW 14 10.00 Partly Cloudy FEW120 FEW150 SCT220 70 41 78.1 66.9 35% 30.05 1007.7
24 04:53 SW 14 10.00 Partly Cloudy FEW150 SCT220 68 43 40% 30.04 1007.5
24 03:53 SW 12 10.00 Partly Cloudy FEW150 SCT220 69.1 43 39% 30.04 1007.2
24 02:53 SW 10 10.00 Fair CLR 70 43 38% 30.04 1007.5
24 01:53 SW 8 10.00 Partly Cloudy SCT220 70 42.1 37% 30.05 1007.8
24 00:53 Calm 10.00 Partly Cloudy FEW150 SCT220 68 39.9 36% 30.07 1008.6
23 23:53 NW 7 10.00 A Few Clouds FEW150 75 41 96.1 73 29% 77 30.08 1008.4
23 22:53 E 3 10.00 Mostly Cloudy BKN150 78.1 41 27% 78 30.07 1008.1
23 21:53 E 9 10.00 Mostly Cloudy FEW110 BKN140 77 41 28% 78 30.06 1008.1
23 20:53 NE 14 G 21 10.00 Mostly Cloudy SCT110 BKN140 BKN220 86 36 17% 83 30.03 1007.0
23 19:53 N 10 10.00 Mostly Cloudy FEW110 BKN140 BKN220 88 37 16% 84 30.04 1007.3
23 18:53 SE 7 10.00 Mostly Cloudy SCT110 BKN140 BKN220 91 34 13% 87 30.03 1007.1
23 17:53 W 5 10.00 Partly Cloudy SCT110 SCT220 96.1 34 98.1 91.9 11% 91 30.03 1007.1
23 16:53 E 7 10.00 Partly Cloudy SCT110 SCT220 96.1 34 11% 91 30.04 1007.5
23 15:53 SW 9 10.00 Partly Cloudy SCT110 SCT220 97 35.1 11% 92 30.05 1007.9
23 14:53 Calm 10.00 Partly Cloudy SCT110 SCT220 95 35.1 12% 90 30.08 1008.7
23 13:53 Vrbl 5 G 22 10.00 Partly Cloudy SCT110 SCT220 96.1 35.1 12% 91 30.1 1009.4
23 12:53 W 7 10.00 A Few Clouds FEW100 FEW220 93 34 12% 89 30.12 1010.2
23 11:53 Vrbl 6 10.00 A Few Clouds FEW100 FEW220 93 35.1 93 66 13% 89 30.14 1011.0
23 10:53 SW 8 10.00 A Few Clouds FEW095 FEW220 89.1 37.9 16% 85 30.15 1011.2
23 09:53 W 9 10.00 A Few Clouds FEW095 FEW220 87.1 41 20% 84 30.16 1011.9
23 08:53 SW 12 10.00 A Few Clouds FEW220 82 43 25% 80 30.16 1012.3
23 07:53 SW 14 10.00 A Few Clouds FEW200 75.9 43 31% 77 30.16 1012.6
23 06:53 SW 13 10.00 A Few Clouds FEW200 70 42.1 37% 30.16 1012.8
23 05:53 SW 13 10.00 A Few Clouds FEW200 64.9 42.1 72 64.9 43% 30.15 1012.4
23 04:53 SW 15 10.00 Fair CLR 66 42.1 42% 30.14 1011.5
23 03:53 SW 13 10.00 Fair CLR 66.9 43 42% 30.14 1011.5
23 02:53 SW 14 10.00 Fair CLR 68 44.1 42% 30.14 1011.3
23 01:53 S 12 10.00 Fair CLR 68 44.1 42% 30.15 1011.5
23 00:53 S 16 10.00 Fair CLR 70 45 41% 30.16 1012.1
22 23:53 SW 13 10.00 Fair CLR 69.1 46 84 69.1 44% 30.18 1013.0
22 22:53 SW 12 10.00 A Few Clouds FEW110 72 46 40% 30.19 1013.2
22 21:53 S 15 10.00 Partly Cloudy FEW110 SCT150 73 46 38% 30.19 1013.6
22 20:53 S 13 10.00 Mostly Cloudy SCT110 SCT160 BKN220 73.9 45 36% 30.18 1013.5
22 19:53 S 6 10.00 Mostly Cloudy SCT110 BKN160 BKN220 77 44.1 31% 78 30.18 1013.7
22 18:53 E 6 10.00 Mostly Cloudy SCT110 BKN160 BKN220 80.1 45 29% 79 30.17 1014.0
22 17:53 NE 20 10.00 Mostly Cloudy SCT110 BKN160 BKN220 84.9 42.1 93 81 22% 82 30.14 1013.5
22 16:53 N 26 G 40 10.00 Mostly Cloudy and Windy SCT120 BKN160 89.1 39 17% 85 30.13 1012.0
22 15:53 Vrbl 7 10.00 Mostly Cloudy SCT110 SCT150 BKN220 89.1 37 16% 85 30.11 1011.5
22 14:53 Vrbl 5 G 16 10.00 Partly Cloudy SCT095 SCT150 SCT220 91 37 15% 87 30.11 1011.4
22 13:53 W 14 G 20 10.00 Partly Cloudy SCT095 SCT150 SCT220 91 37 15% 87 30.13 1011.7
22 12:53 NW 8 10.00 A Few Clouds FEW095 FEW150 FEW220 88 37.9 17% 84 30.16 1012.6
22 11:53 W 9 10.00 A Few Clouds FEW090 FEW150 FEW220 87.1 37.9 87.1 53.1 18% 84 30.17 1013.0
22 10:53 Vrbl 5 10.00 A Few Clouds FEW090 FEW150 FEW220 82.9 39 21% 81 30.17 1013.1
22 09:53 Vrbl 5 10.00 Partly Cloudy FEW150 SCT220 78.1 42.1 28% 78 30.17 1013.3
22 08:53 S 8 10.00 Partly Cloudy FEW150 SCT220 75 46.9 37% 77 30.17 1013.3
22 07:53 SE 6 10.00 Partly Cloudy SCT180 SCT220 68 48 49% 30.16 1013.0
22 06:53 SE 7 10.00 Partly Cloudy SCT180 SCT220 62.1 46.9 58% 30.14 1012.6
22 05:53 S 10 10.00 Partly Cloudy SCT150 SCT220 53.1 45 64.9 51.1 74% 30.13 1013.1
22 04:53 SW 5 10.00 Partly Cloudy FEW150 SCT220 57 45 64% 30.12 1012.5
Date Time (mdt) Wind (mph) Vis. (mi.) Weather Sky Cond. Air Dwpt Max. Min. Relative Humidity Wind Chill (°F) Heat Index (°F) altimeter (in) sea level (mb) 1 hr 3 hr 6 hr
6 hour
Temperature (ºF) Pressure Precipitation (in)